When you browse on this site, cookies collect data to enhance your experience and personalize the content and advertising you see.
Visit our Privacy Policy to learn more. By continuing to use the site, you agree to this use of cookies and data.
  • In Czech Republic
  • List of Countries
  • For 7 days
  • Water Temperature
  • Weather Map
  • Weather Widgets
  • user-avatar
    Login

    Hourly Weather Sevan

    Today, 3 June, Wednesday

    Time Temperature Precipitation Wind Pressure Humidity
    00:00 +15°C° 0.6 mm 2 mps 637 mmHg 72%
    01:00 +15°C° 0 mm 1 mps 637 mmHg 71%
    02:00 +14°C° 0 mm 1 mps 637 mmHg 69%
    03:00 +14°C° 0 mm 1 mps 637 mmHg 69%
    04:00 +15°C° 0 mm 1 mps 637 mmHg 66%
    05:00 +15°C° 0 mm 1 mps 637 mmHg 62%
    06:00 +16°C° 0 mm 1 mps 638 mmHg 59%
    07:00 +18°C° 0 mm 2 mps 638 mmHg 53%
    08:00 +20°C° 0 mm 2 mps 639 mmHg 47%
    09:00 +22°C° 0 mm 3 mps 639 mmHg 40%
    10:00 +22°C° 0 mm 3 mps 640 mmHg 40%
    11:00 +24°C° 0 mm 3 mps 640 mmHg 39%
    12:00 +24°C° 0 mm 3 mps 640 mmHg 38%
    13:00 +22°C° 0.8 mm 3 mps 639 mmHg 43%
    14:00 +22°C° 0.8 mm 3 mps 639 mmHg 47%
    15:00 +21°C° 0 mm 2 mps 639 mmHg 52%
    16:00 +21°C° 0.2 mm 2 mps 639 mmHg 54%
    17:00 +21°C° 0.2 mm 2 mps 639 mmHg 56%
    18:00 +22°C° 0.2 mm 1 mps 639 mmHg 58%
    19:00 +20°C° 0.1 mm 1 mps 639 mmHg 61%
    20:00 +17°C° 0.1 mm 2 mps 639 mmHg 64%
    21:00 +15°C° 0.1 mm 2 mps 639 mmHg 67%
    22:00 +15°C° 0.1 mm 2 mps 639 mmHg 68%
    23:00 +15°C° 0.1 mm 2 mps 638 mmHg 68%

    Tomorrow, 4 June, Thursday

    Time Temperature Precipitation Wind Pressure Humidity
    00:00 +14°C° 0.1 mm 2 mps 638 mmHg 69%
    01:00 +14°C° 0 mm 2 mps 638 mmHg 69%
    02:00 +14°C° 0 mm 1 mps 638 mmHg 68%
    03:00 +13°C° 0 mm 1 mps 638 mmHg 68%
    04:00 +14°C° 0 mm 1 mps 639 mmHg 66%
    05:00 +15°C° 0 mm 1 mps 639 mmHg 64%
    06:00 +16°C° 0 mm 1 mps 640 mmHg 63%
    07:00 +19°C° 0 mm 1 mps 640 mmHg 56%
    08:00 +20°C° 0 mm 1 mps 640 mmHg 49%
    09:00 +21°C° 0 mm 2 mps 641 mmHg 41%
    10:00 +23°C° 0 mm 2 mps 641 mmHg 39%
    11:00 +24°C° 0 mm 3 mps 641 mmHg 37%
    12:00 +25°C° 0 mm 3 mps 641 mmHg 36%
    13:00 +25°C° 0 mm 3 mps 641 mmHg 35%
    14:00 +25°C° 0 mm 3 mps 641 mmHg 35%
    15:00 +26°C° 0 mm 3 mps 641 mmHg 35%
    16:00 +25°C° 0 mm 3 mps 641 mmHg 38%
    17:00 +25°C° 0 mm 3 mps 641 mmHg 42%
    18:00 +24°C° 0 mm 3 mps 641 mmHg 46%
    19:00 +21°C° 0 mm 3 mps 641 mmHg 46%
    20:00 +19°C° 0 mm 2 mps 641 mmHg 46%
    21:00 +17°C° 0 mm 2 mps 641 mmHg 46%
    22:00 +16°C° 0 mm 2 mps 641 mmHg 45%
    23:00 +15°C° 0 mm 2 mps 641 mmHg 45%

    Day after tomorrow, 5 June, Friday

    Time Temperature Precipitation Wind Pressure Humidity
    00:00 +15°C° 0 mm 2 mps 642 mmHg 45%
    01:00 +14°C° 0 mm 2 mps 642 mmHg 45%
    02:00 +14°C° 0 mm 2 mps 642 mmHg 46%
    03:00 +13°C° 0 mm 2 mps 642 mmHg 47%
    04:00 +14°C° 0 mm 2 mps 642 mmHg 50%
    05:00 +15°C° 0 mm 1 mps 643 mmHg 52%
    06:00 +16°C° 0 mm 1 mps 643 mmHg 55%
    07:00 +18°C° 0 mm 1 mps 643 mmHg 49%
    08:00 +19°C° 0 mm 2 mps 644 mmHg 43%
    09:00 +21°C° 0 mm 2 mps 644 mmHg 38%
    10:00 +21°C° 0 mm 2 mps 644 mmHg 36%
    11:00 +22°C° 0 mm 3 mps 644 mmHg 35%
    12:00 +23°C° 0 mm 4 mps 644 mmHg 34%
    13:00 +23°C° 0 mm 4 mps 644 mmHg 35%
    14:00 +23°C° 0 mm 4 mps 644 mmHg 37%
    15:00 +23°C° 0 mm 4 mps 643 mmHg 38%
    16:00 +22°C° 0 mm 3 mps 643 mmHg 41%
    17:00 +23°C° 0 mm 2 mps 643 mmHg 44%
    18:00 +21°C° 0 mm 2 mps 643 mmHg 47%
    19:00 +19°C° 0 mm 2 mps 643 mmHg 50%
    20:00 +17°C° 0 mm 2 mps 643 mmHg 53%
    21:00 +14°C° 0 mm 3 mps 643 mmHg 55%
    22:00 +14°C° 0 mm 3 mps 643 mmHg 55%
    23:00 +15°C° 0 mm 2 mps 643 mmHg 55%

    6 June, Saturday

    Time Temperature Precipitation Wind Pressure Humidity
    00:00 +14°C° 0 mm 2 mps 643 mmHg 55%
    01:00 +14°C° 0 mm 2 mps 643 mmHg 55%
    02:00 +13°C° 0 mm 2 mps 643 mmHg 55%
    03:00 +13°C° 0 mm 2 mps 643 mmHg 56%
    04:00 +14°C° 0 mm 2 mps 644 mmHg 58%
    05:00 +15°C° 0 mm 2 mps 644 mmHg 59%
    06:00 +15°C° 0 mm 2 mps 644 mmHg 61%
    07:00 +17°C° 0.1 mm 2 mps 645 mmHg 56%
    08:00 +19°C° 0.1 mm 2 mps 645 mmHg 51%
    09:00 +22°C° 0.1 mm 1 mps 646 mmHg 46%
    10:00 +23°C° 0.2 mm 2 mps 646 mmHg 43%
    11:00 +24°C° 0.2 mm 2 mps 646 mmHg 40%
    12:00 +24°C° 0.2 mm 2 mps 646 mmHg 38%
    13:00 +25°C° 0.5 mm 2 mps 646 mmHg 38%
    14:00 +25°C° 0.5 mm 2 mps 645 mmHg 39%
    15:00 +25°C° 0.5 mm 2 mps 645 mmHg 40%
    16:00 +24°C° 0.3 mm 3 mps 645 mmHg 45%
    17:00 +22°C° 0.3 mm 4 mps 645 mmHg 50%
    18:00 +21°C° 0.3 mm 5 mps 645 mmHg 55%
    19:00 +19°C° 0 mm 4 mps 645 mmHg 59%
    20:00 +17°C° 0 mm 3 mps 645 mmHg 62%
    21:00 +14°C° 0 mm 3 mps 645 mmHg 66%
    22:00 +14°C° 0 mm 3 mps 644 mmHg 66%
    23:00 +14°C° 0 mm 2 mps 644 mmHg 67%

    7 June, Sunday

    Time Temperature Precipitation Wind Pressure Humidity
    00:00 +14°C° 0 mm 2 mps 644 mmHg 67%
    01:00 +14°C° 0 mm 2 mps 644 mmHg 68%
    02:00 +13°C° 0 mm 2 mps 644 mmHg 69%
    03:00 +13°C° 0 mm 2 mps 644 mmHg 70%
    04:00 +14°C° 0 mm 2 mps 644 mmHg 69%
    05:00 +14°C° 0 mm 2 mps 644 mmHg 69%
    06:00 +15°C° 0 mm 2 mps 644 mmHg 69%
    07:00 +17°C° 0 mm 2 mps 645 mmHg 64%
    08:00 +18°C° 0 mm 2 mps 645 mmHg 58%
    09:00 +20°C° 0 mm 2 mps 646 mmHg 53%
    10:00 +21°C° 0.1 mm 2 mps 646 mmHg 50%
    11:00 +23°C° 0.1 mm 2 mps 646 mmHg 47%
    12:00 +24°C° 0.1 mm 2 mps 646 mmHg 45%
    13:00 +25°C° 0.1 mm 2 mps 646 mmHg 44%
    14:00 +25°C° 0.1 mm 2 mps 646 mmHg 43%
    15:00 +25°C° 0.1 mm 2 mps 645 mmHg 42%
    16:00 +25°C° 0.1 mm 2 mps 645 mmHg 47%
    17:00 +24°C° 0.1 mm 2 mps 645 mmHg 51%
    18:00 +23°C° 0.1 mm 2 mps 645 mmHg 56%
    19:00 +20°C° 0 mm 2 mps 644 mmHg 60%
    20:00 +19°C° 0 mm 3 mps 644 mmHg 65%
    21:00 +17°C° 0 mm 3 mps 644 mmHg 69%
    22:00 +16°C° 0 mm 3 mps 644 mmHg 69%
    23:00 +16°C° 0 mm 3 mps 644 mmHg 69%

    8 June, Monday

    Time Temperature Precipitation Wind Pressure Humidity
    00:00 +15°C° 0 mm 2 mps 644 mmHg 68%
    01:00 +15°C° 0 mm 2 mps 643 mmHg 68%
    02:00 +14°C° 0 mm 2 mps 643 mmHg 68%
    03:00 +14°C° 0 mm 2 mps 643 mmHg 67%
    04:00 +15°C° 0 mm 2 mps 643 mmHg 67%
    05:00 +15°C° 0 mm 2 mps 644 mmHg 66%
    06:00 +16°C° 0 mm 1 mps 644 mmHg 65%
    07:00 +19°C° 0 mm 1 mps 644 mmHg 59%
    08:00 +21°C° 0 mm 1 mps 644 mmHg 54%
    09:00 +21°C° 0 mm 2 mps 645 mmHg 48%
    10:00 +23°C° 0 mm 2 mps 645 mmHg 45%
    11:00 +25°C° 0 mm 2 mps 645 mmHg 43%
    12:00 +26°C° 0 mm 2 mps 645 mmHg 40%
    13:00 +26°C° 0 mm 2 mps 645 mmHg 38%
    14:00 +27°C° 0 mm 2 mps 645 mmHg 36%
    15:00 +27°C° 0 mm 1 mps 644 mmHg 34%
    16:00 +26°C° 0 mm 1 mps 644 mmHg 40%
    17:00 +26°C° 0 mm 2 mps 644 mmHg 45%
    18:00 +25°C° 0 mm 2 mps 643 mmHg 51%
    19:00 +23°C° 0 mm 2 mps 643 mmHg 56%
    20:00 +20°C° 0 mm 3 mps 643 mmHg 62%
    21:00 +18°C° 0 mm 3 mps 643 mmHg 67%
    22:00 +17°C° 0 mm 3 mps 643 mmHg 66%
    23:00 +17°C° 0 mm 3 mps 643 mmHg 65%
    Show more